Location: Ferchesar
(52.6477°N, 12.4298°E)
Time: 14:51:24
(UTC+01:00)

Vanguard 3 - Pass Details

Date: 11 December 2021
Orbit: 508 x 3260 km, 33.3° (Epoch: 25 January)

Event Time Altitude Azimuth Distance (km) Brightness Sun altitude
Exits shadow 03:25:58 38° 191° (S) 4,304 10.4 -41.7°
Maximum altitude 03:29:24 40° 172° (S) 4,217 10.5 -41.2°
Drops below altitude 10° 03:45:39 10° 113° (ESE) 5,704 11.9 -38.8°
Sets 03:49:58 0° 106° (ESE) 6,444 12.5 -38.2°
